Weather History for Noatak, AK

Change the Weather History Date:

Wednesday, December 12, 2012

  Actual Average Record
Temperature  
Mean Temperature -12 °F -  
Max Temperature -2 °F 1 °F 35 °F (2000)
Min Temperature -23 °F -7 °F -47 °F (1998)
Degree Days  
Heating Degree Days 78    
Moisture  
Dew Point -21 °F    
Average Humidity 56    
Maximum Humidity 100    
Minimum Humidity 45    
Precipitation  
Precipitation 0.00 in - - ()
Sea Level Pressure  
Sea Level Pressure 29.36 in    
Wind  
Wind Speed 7 mph (NNW)    
Max Wind Speed 16 mph    
Max Gust Speed 22 mph    
Visibility 10 miles    
Events      
Averages and records for this station are not official NWS values.
T = Trace of Precipitation, MM = Missing Value Source: NWS Daily Summary

Daily Weather History Graph

Daily Weather History Graph

Search for Another Location

Airport:

Trip Planner

Search our weather history database for the weather conditions in past years. The results will help you decide how hot, cold, wet, or windy it might be!

Date:

Astronomy

Dec. 12, 2012 Rise Set
Actual Time 1:21 PM AKST 2:10 PM AKST
Civil Twilight 10:56 AM AKST 4:35 PM AKST
Nautical Twilight 9:31 AM AKST 6:00 PM AKST
Astronomical Twilight 8:21 AM AKST 7:10 PM AKST
Moon 11:51 AM AKST (12/12) 2:47 PM AKST (12/12)
Length of Visible Light 5h 39m
Length of Day
0h 48m
Waning Crescent, 0% of the Moon is Illuminated
Dec 12
Waning Crescent
Dec 12
New
Dec 19
First Quarter
Dec 28
Full
Jan 4
Last Quarter

Hourly Weather History & Observations

Time (AKST) Temp. Windchill Dew Point Humidity Pressure Visibility Wind Dir Wind Speed Gust Speed Precip Events Conditions
12:16 AM -20.2 °F -30.9 °F -29.2 °F 63% 29.61 in 10.0 mi NE 3.5 mph - N/A   Clear
12:36 AM -20.2 °F -37.3 °F -27.4 °F 69% 29.59 in 10.0 mi North 6.9 mph - N/A   Clear
12:56 AM -18.4 °F -35.1 °F -25.6 °F 70% 29.57 in 10.0 mi North 6.9 mph - N/A   Clear
1:16 AM -20.2 °F -33.5 °F - N/A% 29.55 in 10.0 mi North 4.6 mph - N/A   Clear
1:36 AM -20.2 °F - - N/A% 29.55 in 10.0 mi Calm Calm - N/A   Clear
1:56 AM -23.8 °F - - N/A% 29.54 in 10.0 mi Calm Calm - N/A   Clear
2:16 AM -23.8 °F - - N/A% 29.52 in 10.0 mi Calm Calm - N/A   Clear
2:56 AM -23.8 °F -35.0 °F - N/A% 29.49 in 10.0 mi North 3.5 mph - N/A   Clear
3:16 AM -23.8 °F - -29.2 °F 76% 29.49 in 10.0 mi Calm Calm - N/A   Clear
3:36 AM -23.8 °F - - N/A% 29.48 in 10.0 mi Calm Calm - N/A   Clear
3:56 AM -23.8 °F - - N/A% 29.47 in 10.0 mi Calm Calm - N/A   Scattered Clouds
4:16 AM -22.0 °F - -29.2 °F 69% 29.46 in 10.0 mi Calm Calm - N/A   Partly Cloudy
4:36 AM -22.0 °F - - N/A% 29.44 in 10.0 mi Calm Calm - N/A   Clear
4:56 AM -20.2 °F - - N/A% 29.43 in 10.0 mi Calm Calm - N/A   Clear
5:16 AM -18.4 °F -31.4 °F -25.6 °F 70% 29.42 in 10.0 mi NNW 4.6 mph - N/A   Clear
5:36 AM -16.6 °F -29.3 °F -25.6 °F 64% 29.41 in 10.0 mi NW 4.6 mph - N/A   Clear
5:56 AM -18.4 °F - -27.4 °F 63% 29.40 in 10.0 mi Calm Calm - N/A   Clear
6:16 AM -16.6 °F -26.8 °F -25.6 °F 64% 29.39 in 10.0 mi NNE 3.5 mph - N/A   Clear
6:36 AM -14.8 °F - -23.8 °F 64% 29.38 in 10.0 mi Calm Calm - N/A   Clear
6:56 AM -16.6 °F - -29.2 °F 53% 29.37 in 10.0 mi Calm Calm - N/A   Clear
7:16 AM -13.0 °F -25.1 °F -16.6 °F 84% 29.36 in 10.0 mi NNW 4.6 mph - N/A   Clear
7:36 AM -16.6 °F - - N/A% 29.35 in 10.0 mi Calm Calm - N/A   Clear
7:56 AM -11.2 °F -26.4 °F -11.2 °F 100% 29.34 in 10.0 mi North 6.9 mph - N/A   Clear
8:16 AM -7.6 °F -23.4 °F -22.0 °F 50% 29.33 in 10.0 mi WNW 8.1 mph - N/A   Clear
8:36 AM -5.8 °F -22.4 °F -11.2 °F 77% 29.33 in 10.0 mi NNW 9.2 mph - N/A   Clear
8:56 AM -5.8 °F -23.4 °F -14.8 °F 65% 29.32 in 10.0 mi North 10.4 mph - N/A   Clear
9:16 AM -4.0 °F -21.2 °F -16.6 °F 55% 29.31 in 10.0 mi NNW 10.4 mph - N/A   Clear
9:36 AM -4.0 °F -21.2 °F -14.8 °F 60% 29.31 in 10.0 mi NNW 10.4 mph - N/A   Clear
9:56 AM -4.0 °F -23.0 °F -16.6 °F 55% 29.30 in 10.0 mi NW 12.7 mph - N/A   Clear
10:16 AM -4.0 °F -23.0 °F -16.6 °F 55% 29.30 in 10.0 mi North 12.7 mph - N/A   Clear
10:36 AM -4.0 °F -23.0 °F -16.6 °F 55% 29.30 in 10.0 mi NNW 12.7 mph 18.4 mph N/A   Clear
10:56 AM -4.0 °F -22.1 °F -16.6 °F 55% 29.30 in 10.0 mi NNW 11.5 mph - N/A   Clear
11:16 AM -4.0 °F -23.0 °F -16.6 °F 55% 29.30 in 10.0 mi NNW 12.7 mph - N/A   Clear
11:36 AM -2.2 °F -19.9 °F -18.4 °F 46% 29.29 in 10.0 mi North 11.5 mph 17.3 mph N/A   Clear
11:56 AM -2.2 °F -20.7 °F -18.4 °F 46% 29.29 in 10.0 mi NNW 12.7 mph - N/A   Clear
12:16 PM -4.0 °F -20.2 °F -16.6 °F 55% 29.29 in 10.0 mi NW 9.2 mph 17.3 mph N/A   Clear
12:36 PM -4.0 °F -21.2 °F -18.4 °F 50% 29.29 in 10.0 mi NW 10.4 mph - N/A   Clear
12:56 PM -5.8 °F -25.2 °F -18.4 °F 55% 29.29 in 10.0 mi NW 12.7 mph 17.3 mph N/A   Clear
1:16 PM -5.8 °F -24.4 °F -20.2 °F 50% 29.28 in 10.0 mi NW 11.5 mph 18.4 mph N/A   Clear
1:36 PM -5.8 °F -24.4 °F -18.4 °F 55% 29.29 in 10.0 mi NW 11.5 mph - N/A   Clear
1:56 PM -5.8 °F -23.4 °F -20.2 °F 50% 29.29 in 10.0 mi WNW 10.4 mph - N/A   Clear
2:16 PM -5.8 °F -22.4 °F -20.2 °F 50% 29.29 in 10.0 mi NW 9.2 mph - N/A   Clear
2:36 PM -5.8 °F -23.4 °F -20.2 °F 50% 29.29 in 10.0 mi NW 10.4 mph - N/A   Clear
2:56 PM -5.8 °F -23.4 °F -20.2 °F 50% 29.29 in 10.0 mi NNW 10.4 mph - N/A   Clear
3:16 PM -5.8 °F -23.4 °F -18.4 °F 55% 29.29 in 10.0 mi NNW 10.4 mph - N/A   Clear
3:36 PM -5.8 °F -24.4 °F -20.2 °F 50% 29.30 in 10.0 mi NNW 11.5 mph - N/A   Clear
3:56 PM -5.8 °F -23.4 °F -20.2 °F 50% 29.29 in 10.0 mi North 10.4 mph 17.3 mph N/A   Clear
4:16 PM -5.8 °F -24.4 °F -20.2 °F 50% 29.29 in 10.0 mi North 11.5 mph - N/A   Clear
4:36 PM -5.8 °F -25.2 °F -20.2 °F 50% 29.29 in 10.0 mi NNW 12.7 mph 18.4 mph N/A   Clear
4:56 PM -5.8 °F -25.2 °F -20.2 °F 50% 29.30 in 10.0 mi North 12.7 mph 17.3 mph N/A   Clear
5:16 PM -5.8 °F -27.5 °F -20.2 °F 50% 29.30 in 10.0 mi North 16.1 mph 21.9 mph N/A   Clear
5:36 PM -5.8 °F -25.2 °F -20.2 °F 50% 29.30 in 10.0 mi North 12.7 mph - N/A   Clear
5:56 PM -5.8 °F -23.4 °F -20.2 °F 50% 29.30 in 10.0 mi NW 10.4 mph - N/A   Clear
6:16 PM -7.6 °F -27.5 °F -22.0 °F 50% 29.30 in 10.0 mi NW 12.7 mph - N/A   Clear
6:36 PM -7.6 °F -27.5 °F -20.2 °F 54% 29.30 in 10.0 mi NW 12.7 mph - N/A   Clear
6:56 PM -7.6 °F -26.6 °F -22.0 °F 50% 29.30 in 10.0 mi NW 11.5 mph - N/A   Clear
7:16 PM -7.6 °F -27.5 °F -20.2 °F 54% 29.30 in 10.0 mi NW 12.7 mph - N/A   Clear
7:36 PM -7.6 °F -27.5 °F -22.0 °F 50% 29.31 in 10.0 mi NW 12.7 mph - N/A   Clear
7:56 PM -7.6 °F -27.5 °F -22.0 °F 50% 29.31 in 10.0 mi WNW 12.7 mph - N/A   Clear
8:16 PM -7.6 °F -28.3 °F -22.0 °F 50% 29.31 in 10.0 mi NW 13.8 mph - N/A   Clear
8:36 PM -9.4 °F -29.8 °F -23.8 °F 49% 29.32 in 10.0 mi NW 12.7 mph - N/A   Clear
8:56 PM -7.6 °F -27.5 °F -20.2 °F 54% 29.32 in 10.0 mi NW 12.7 mph - N/A   Clear
9:16 PM -7.6 °F -28.3 °F -23.8 °F 45% 29.33 in 10.0 mi NW 13.8 mph - N/A   Clear
9:36 PM -7.6 °F -27.5 °F -20.2 °F 54% 29.33 in 10.0 mi NW 12.7 mph - N/A   Clear
9:56 PM -7.6 °F -29.1 °F -23.8 °F 45% 29.33 in 10.0 mi NW 15.0 mph - N/A   Clear
10:16 PM -7.6 °F -29.1 °F -23.8 °F 45% 29.33 in 10.0 mi NW 15.0 mph - N/A   Clear
10:36 PM -7.6 °F -27.5 °F -23.8 °F 45% 29.34 in 10.0 mi WNW 12.7 mph - N/A   Clear
10:56 PM -9.4 °F -29.8 °F -23.8 °F 49% 29.35 in 10.0 mi NW 12.7 mph - N/A   Clear
11:16 PM -9.4 °F -30.6 °F -22.0 °F 54% 29.35 in 10.0 mi NNW 13.8 mph - N/A   Clear
11:36 PM -7.6 °F -27.5 °F -22.0 °F 50% 29.36 in 10.0 mi NW 12.7 mph - N/A   Clear
11:56 PM -7.6 °F -28.3 °F -23.8 °F 45% 29.37 in 10.0 mi NW 13.8 mph - N/A   Clear